EN

Hourly Weather Alpatovo

Today, 20 January, Wednesday

Time Temperature Precipitation Wind Pressure Humidity
00:00 -16°C° 0 mm 2 mps 749 mmHg 96%
01:00 -16°C° 0.1 mm 2 mps 749 mmHg 96%
02:00 -16°C° 0.1 mm 2 mps 749 mmHg 96%
03:00 -14°C° 0 mm 2 mps 749 mmHg 99%
04:00 -14°C° 0.1 mm 2 mps 749 mmHg 98%
05:00 -13°C° 0.1 mm 2 mps 748 mmHg 96%
06:00 -14°C° 0.1 mm 3 mps 748 mmHg 95%
07:00 -14°C° 0.1 mm 3 mps 749 mmHg 95%
08:00 -15°C° 0.1 mm 3 mps 749 mmHg 95%
09:00 -15°C° 0 mm 3 mps 749 mmHg 95%
10:00 -14°C° 0 mm 3 mps 749 mmHg 95%
11:00 -14°C° 0 mm 3 mps 749 mmHg 94%
12:00 -13°C° 0 mm 3 mps 749 mmHg 94%
13:00 -13°C° 0 mm 3 mps 749 mmHg 94%
14:00 -13°C° 0 mm 3 mps 749 mmHg 94%
15:00 -10°C° 0 mm 3 mps 749 mmHg 96%
16:00 -12°C° 0.1 mm 3 mps 749 mmHg 96%
17:00 -12°C° 0.1 mm 3 mps 750 mmHg 95%
18:00 -13°C° 0.1 mm 3 mps 750 mmHg 94%
19:00 -14°C° 0 mm 3 mps 750 mmHg 94%
20:00 -14°C° 0 mm 3 mps 750 mmHg 94%
21:00 -15°C° 0 mm 3 mps 751 mmHg 94%
22:00 -16°C° 0 mm 3 mps 751 mmHg 94%
23:00 -17°C° 0 mm 3 mps 751 mmHg 95%

Tomorrow, 21 January, Thursday

Time Temperature Precipitation Wind Pressure Humidity
00:00 -18°C° 0 mm 3 mps 751 mmHg 95%
01:00 -19°C° 0 mm 3 mps 751 mmHg 95%
02:00 -19°C° 0 mm 3 mps 750 mmHg 94%
03:00 -21°C° 0 mm 3 mps 750 mmHg 94%
04:00 -21°C° 0 mm 3 mps 750 mmHg 93%
05:00 -21°C° 0 mm 3 mps 750 mmHg 93%
06:00 -19°C° 0 mm 3 mps 749 mmHg 92%
07:00 -19°C° 0 mm 3 mps 749 mmHg 92%
08:00 -19°C° 0 mm 3 mps 749 mmHg 92%
09:00 -18°C° 0 mm 3 mps 748 mmHg 92%
10:00 -17°C° 0.2 mm 3 mps 748 mmHg 93%
11:00 -16°C° 0.2 mm 3 mps 748 mmHg 93%
12:00 -15°C° 0.2 mm 3 mps 748 mmHg 94%
13:00 -14°C° 0.2 mm 2 mps 747 mmHg 94%
14:00 -13°C° 0.2 mm 2 mps 747 mmHg 94%
15:00 -13°C° 0.2 mm 2 mps 747 mmHg 94%
16:00 -13°C° 0.1 mm 2 mps 747 mmHg 94%
17:00 -12°C° 0.1 mm 1 mps 747 mmHg 95%
18:00 -13°C° 0.1 mm 1 mps 747 mmHg 96%
19:00 -13°C° 0 mm 1 mps 747 mmHg 96%
20:00 -13°C° 0 mm 1 mps 747 mmHg 95%
21:00 -13°C° 0 mm 1 mps 747 mmHg 95%
22:00 -13°C° 0 mm 1 mps 747 mmHg 95%
23:00 -15°C° 0 mm 2 mps 747 mmHg 95%

Day after tomorrow, 22 January, Friday

Time Temperature Precipitation Wind Pressure Humidity
00:00 -15°C° 0 mm 2 mps 746 mmHg 95%
01:00 -14°C° 0 mm 2 mps 747 mmHg 95%
02:00 -14°C° 0 mm 2 mps 747 mmHg 95%
03:00 -15°C° 0 mm 3 mps 747 mmHg 95%
04:00 -14°C° 0.2 mm 3 mps 746 mmHg 95%
05:00 -14°C° 0.2 mm 3 mps 746 mmHg 95%
06:00 -13°C° 0.2 mm 3 mps 746 mmHg 95%
07:00 -12°C° 0.4 mm 3 mps 746 mmHg 95%
08:00 -12°C° 0.4 mm 3 mps 746 mmHg 95%
09:00 -10°C° 0.4 mm 3 mps 746 mmHg 95%
10:00 -10°C° 0.2 mm 4 mps 745 mmHg 95%
11:00 -9°C° 0.2 mm 4 mps 745 mmHg 95%
12:00 -9°C° 0.2 mm 4 mps 745 mmHg 95%
13:00 -7°C° 0.1 mm 4 mps 745 mmHg 96%
14:00 -5°C° 0.1 mm 3 mps 745 mmHg 96%
15:00 -2°C° 0.1 mm 3 mps 745 mmHg 97%
16:00 -2°C° 0 mm 3 mps 745 mmHg 97%
17:00 -2°C° 0 mm 4 mps 744 mmHg 97%
18:00 -2°C° 0 mm 4 mps 744 mmHg 97%
19:00 -2°C° 0 mm 4 mps 744 mmHg 97%
20:00 -2°C° 0 mm 4 mps 744 mmHg 97%
21:00 -2°C° 0 mm 4 mps 744 mmHg 98%
22:00 -1°C° 0.1 mm 4 mps 744 mmHg 98%
23:00 -1°C° 0.1 mm 4 mps 744 mmHg 98%

23 January, Saturday

Time Temperature Precipitation Wind Pressure Humidity
00:00 0°C° 0.1 mm 3 mps 744 mmHg 98%
01:00 0°C° 0 mm 3 mps 744 mmHg 98%
02:00 0°C° 0 mm 3 mps 744 mmHg 98%
03:00 0°C° 0 mm 3 mps 743 mmHg 98%
04:00 0°C° 0 mm 3 mps 743 mmHg 98%
05:00 0°C° 0 mm 3 mps 743 mmHg 97%
06:00 -1°C° 0 mm 3 mps 743 mmHg 97%
07:00 -1°C° 0 mm 3 mps 743 mmHg 97%
08:00 -1°C° 0 mm 3 mps 743 mmHg 97%
09:00 -1°C° 0 mm 3 mps 743 mmHg 97%
10:00 -1°C° 0.1 mm 3 mps 743 mmHg 98%
11:00 0°C° 0.1 mm 3 mps 743 mmHg 99%
12:00 0°C° 0.1 mm 3 mps 743 mmHg 99%
13:00 0°C° 0.1 mm 3 mps 743 mmHg 99%
14:00 0°C° 0.1 mm 3 mps 743 mmHg 99%
15:00 0°C° 0.1 mm 3 mps 743 mmHg 99%
16:00 0°C° 0 mm 3 mps 744 mmHg 99%
17:00 -1°C° 0 mm 4 mps 744 mmHg 98%
18:00 -1°C° 0 mm 4 mps 744 mmHg 98%
19:00 -1°C° 0 mm 4 mps 744 mmHg 98%
20:00 -1°C° 0 mm 4 mps 745 mmHg 98%
21:00 -1°C° 0 mm 4 mps 745 mmHg 97%
22:00 0°C° 0 mm 3 mps 745 mmHg 97%
23:00 -1°C° 0 mm 3 mps 746 mmHg 96%

24 January, Sunday

Time Temperature Precipitation Wind Pressure Humidity
00:00 -1°C° 0 mm 2 mps 746 mmHg 96%
01:00 -1°C° 0 mm 2 mps 746 mmHg 96%
02:00 -1°C° 0 mm 2 mps 746 mmHg 96%
03:00 -1°C° 0 mm 2 mps 746 mmHg 97%
04:00 +1°C° 0 mm 2 mps 746 mmHg 97%
05:00 +1°C° 0 mm 2 mps 746 mmHg 97%
06:00 0°C° 0 mm 3 mps 746 mmHg 98%
07:00 0°C° 0 mm 3 mps 746 mmHg 98%
08:00 0°C° 0 mm 3 mps 746 mmHg 98%
09:00 0°C° 0 mm 3 mps 746 mmHg 98%
10:00 0°C° 0 mm 3 mps 746 mmHg 98%
11:00 0°C° 0 mm 3 mps 746 mmHg 99%
12:00 0°C° 0 mm 3 mps 746 mmHg 99%
13:00 0°C° 0 mm 3 mps 746 mmHg 99%
14:00 0°C° 0 mm 3 mps 746 mmHg 99%
15:00 -1°C° 0 mm 4 mps 746 mmHg 99%
16:00 -1°C° 0.1 mm 4 mps 746 mmHg 99%
17:00 -1°C° 0.1 mm 4 mps 746 mmHg 99%
18:00 -1°C° 0.1 mm 4 mps 746 mmHg 99%
19:00 -1°C° 0 mm 4 mps 746 mmHg 99%
20:00 -1°C° 0 mm 4 mps 746 mmHg 98%
21:00 -1°C° 0 mm 4 mps 746 mmHg 98%
22:00 -1°C° 0 mm 4 mps 746 mmHg 98%
23:00 -1°C° 0 mm 5 mps 746 mmHg 99%

25 January, Monday

Time Temperature Precipitation Wind Pressure Humidity
00:00 -1°C° 0 mm 5 mps 745 mmHg 99%
01:00 -1°C° 0.1 mm 5 mps 745 mmHg 99%
02:00 0°C° 0.1 mm 5 mps 745 mmHg 99%
03:00 0°C° 0.1 mm 5 mps 745 mmHg 98%
04:00 0°C° 0.1 mm 5 mps 745 mmHg 97%
05:00 -1°C° 0.1 mm 5 mps 745 mmHg 96%
06:00 -1°C° 0.1 mm 5 mps 745 mmHg 95%
07:00 -1°C° 0 mm 5 mps 745 mmHg 93%
08:00 -2°C° 0 mm 5 mps 745 mmHg 90%
09:00 -2°C° 0 mm 5 mps 745 mmHg 87%
10:00 -2°C° 0 mm 5 mps 745 mmHg 89%
11:00 -2°C° 0 mm 5 mps 745 mmHg 90%
12:00 -2°C° 0 mm 5 mps 745 mmHg 91%
13:00 -2°C° 0 mm 5 mps 745 mmHg 94%
14:00 -1°C° 0 mm 5 mps 745 mmHg 96%
15:00 -1°C° 0 mm 5 mps 745 mmHg 99%
16:00 -1°C° 0 mm 5 mps 746 mmHg 98%
17:00 -1°C° 0 mm 4 mps 746 mmHg 98%
18:00 -1°C° 0 mm 4 mps 746 mmHg 98%
19:00 -1°C° 0 mm 4 mps 746 mmHg 97%
20:00 -1°C° 0 mm 4 mps 746 mmHg 97%
21:00 -1°C° 0 mm 4 mps 746 mmHg 97%
22:00 0°C° 0 mm 3 mps 747 mmHg 97%
23:00 0°C° 0 mm 3 mps 747 mmHg 97%
Show more